This demonstration page uses our WeatherBlox Daily Observations layout. Learn more.

Left ArrowRight Arrow

Hourly Observations for January 2, 2020

Temp ( °F °C ) Dew Point ( °F °C ) Humidity (%) Winds ( mph kmh ) Pressure ( in mb ) Visibility ( mi km ) Precip ( " mm )
12:53 am 00:53 Clear 34 1.1 31 -0.6 89 89 WSW 6 9 29.47 998 10 16 0.00 0.00
1:53 am 01:53 Clear 32 0 29 -1.7 88 88 WSW 7 11 29.46 998 10 16 0.00 0.00
2:53 am 02:53 Clear 32 0 28 -2.2 85 85 W 8 13 29.49 999 10 16 0.00 0.00
3:53 am 03:53 Clear 32 0 27 -2.8 82 82 W 7 11 29.50 999 10 16 0.00 0.00
4:53 am 04:53 Clear 30 -1.1 26 -3.3 85 85 W 6 9 29.51 999 10 16 0.00 0.00
5:53 am 05:53 Clear 28 -2.2 24 -4.4 85 85 WNW 5 7 29.54 1000 10 16 0.00 0.00
6:53 am 06:53 Clear 30 -1.1 25 -3.9 82 82 NNW 12 19 29.56 1001 10 16 0.00 0.00
7:53 am 07:53 Clear 30 -1.1 25 -3.9 82 82 NNW 9 15 29.60 1003 10 16 0.00 0.00
8:53 am 08:53 Sunny 32 0 27 -2.8 82 82 NNW 10 17 29.64 1004 10 16 0.00 0.00
9:53 am 09:53 Sunny 34 1.1 28 -2.2 79 79 NNW 12 19 29.67 1005 10 16 0.00 0.00
10:53 am 10:53 Sunny 36 2.2 30 -1.1 79 79 N 14 22 29.70 1006 10 16 0.00 0.00
11:53 am 11:53 Sunny 39 3.9 32 0 76 76 N 13 20 29.69 1005 10 16 0.00 0.00
12:53 pm 12:53 Sunny 39 3.9 32 0 76 76 NNW 16 26 29.69 1005 10 16 0.00 0.00
1:53 pm 13:53 Sunny 40 4.4 33 0.6 77 77 N 15 24 29.69 1005 10 16 0.00 0.00
2:19 pm 14:19 Mostly Cloudy 39 3.9 33 0.6 79 79 N 14 22 29.71 1006 10 16 0.00 0.00
2:53 pm 14:53 Cloudy 39 3.9 33 0.6 79 79 N 12 19 29.70 1006 10 16 0.00 0.00
3:53 pm 15:53 Cloudy 38 3.3 32 0 79 79 N 6 9 29.73 1007 10 16 0.00 0.00
4:53 pm 16:53 Cloudy 37 2.8 32 0 82 82 NNW 8 13 29.75 1008 10 16 0.00 0.00
5:27 pm 17:27 Partly Cloudy 34 1.1 30 -1.1 85 85 NW 6 9 29.79 1009 10 16 0.00 0.00
5:53 pm 17:53 Clear 34 1.1 31 -0.6 89 89 WNW 5 7 29.78 1008 10 16 0.00 0.00
6:53 pm 18:53 Clear 32 0 29 -1.7 88 88 NW 7 11 29.80 1009 10 16 0.00 0.00
7:53 pm 19:53 Clear 31 -0.6 29 -1.7 92 92 WNW 3 6 29.81 1010 10 16 0.00 0.00
8:53 pm 20:53 Clear 31 -0.6 28 -2.2 89 89 W 7 11 29.83 1010 10 16 0.00 0.00
9:53 pm 21:53 Clear 30 -1.1 28 -2.2 92 92 W 6 9 29.85 1011 10 16 0.00 0.00
10:53 pm 22:53 Clear 31 -0.6 27 -2.8 85 85 W 6 9 29.85 1011 10 16 0.00 0.00
11:53 pm 23:53 Clear 30 -1.1 27 -2.8 88 88 WSW 5 7 29.85 1011 10 16 0.00 0.00

Powered by AerisWeather